Simultaneous Nadir Overpasses (SNOs) Predictions

Prediction of SNOs between METOP-B and TERRA Satellite Orbit:

Table of predicted SNOs for the next 14.0 days since TLE Epoch: 12/10/2022
Index Date (METOP-B) Time (METOP-B) Lat,Lon (METOP-B) SZA (METOP-B ) Date (TERRA) Time (TERRA) Lat,Lon (TERRA) SZA (TERRA ) Distance(km) Time Diff (sec)
1 12/11/2022 01:28:07 -81.00, 14.75 74.20 12/11/2022 01:28:28 -81.00, 14.70 74.20 0.85 21
2 12/11/2022 02:18:46 81.03,-177.26 105.89 12/11/2022 02:17:49 81.04,-177.19 105.88 1.40 57
3 12/13/2022 17:39:49 -80.98, 131.34 74.10 12/13/2022 17:40:09 -80.98, 131.52 74.07 3.07 20
4 12/13/2022 18:30:27 81.03, -60.32 106.04 12/13/2022 18:29:30 81.02, -60.37 106.00 1.26 57
5 12/16/2022 09:51:27 -81.01,-111.02 73.92 12/16/2022 09:51:47 -81.01,-111.11 73.92 1.50 20
6 12/16/2022 10:42:07 81.02, 56.58 106.12 12/16/2022 10:41:09 81.02, 56.66 106.11 1.45 58
7 12/19/2022 02:03:08 -81.00, 5.83 73.89 12/19/2022 02:03:27 -80.99, 5.77 73.89 1.05 19
8 12/19/2022 02:53:47 81.02, 173.78 106.20 12/19/2022 02:52:48 81.03, 173.90 106.19 2.09 59
9 12/21/2022 18:14:48 -81.00, 123.00 73.88 12/21/2022 18:15:06 -81.00, 122.86 73.89 2.40 18



Historial Predications of SNOs between METOP-B and TERRA
